User: anonymous   Login
Location: Unspecified
(0.0000°N, 0.0000°E)
Time: 19:17:58
(UTC+00:00)
Language:

CHECKMATE 5 - Orbit

View from above orbital plane
View from above orbital plane
View from above satellite
View from above satellite

Ground track
Ground track

The orbit is defined by the following mean orbital elements,

1 56164U          26145.31830110 +.00000000 +00000-0 +79932-4 0 00004
2 56164  81.0006  93.7672 0006727  42.2786 317.8887 13.84810611    09
Epoch (UTC): 25 May 2026 07:38:21
Eccentricity: 0.0006727
inclination: 81.0006°
perigee height: 942 km
apogee height: 952 km
right ascension of ascending node: 93.7672°
argument of perigee: 42.2786°
revolutions per day: 13.84810611
mean anomaly at epoch: 317.8887°

The dashed part of the orbit path shows where the satellite is in the earth's shadow,  

DLR